Regional Weather Roundup
Issued by NWS

Home | Current Version | Previous Version | Graphics & Text | Print | Product List | Glossary On
Versions: 1 2 3 4 5 6 7 8 9 10 11 12 13 14 15 16 17 18 19 20 21 22 23 24 25 26 27 28 29 30 31 32 33 34 35 36 37 38 39 40 41 42 43 44 45 46 47 48 49 50
000
ASUS45 KBOU 181607
RWRCO

WEATHER ROUNDUP FOR COLORADO
NATIONAL WEATHER SERVICE DENVER/BOULDER CO
1000 AM MDT FRI AUG 18 2017

NOTE: "FAIR" INDICATES FEW OR NO CLOUDS BELOW 12000 FEET WITH NO
SIGNIFICANT WEATHER AND/OR OBSTRUCTIONS TO VISIBILITY.

COZ001>005-013-030-031-181700-
...NORTHWEST COLORADO...

CITY           SKY/WX    TMP DP  RH WIND       PRES   REMARKS
CRAIG          FAIR      69  40  34 N3        30.32F
HAYDEN         FAIR      67  39  35 E8        30.35F
MEEKER         FAIR      66  38  35 W3        30.33F
RABBIT EARS PA FAIR      55  32  41 W7        30.59S
STEAMBOAT SPGS FAIR      62  40  45 CALM      30.36F
WALDEN         FAIR      63  34  34 CALM      30.44S
$$

COZ006>008-011-181700-
...WEST CENTRAL VALLEYS...

CITY           SKY/WX    TMP DP  RH WIND       PRES   REMARKS
GRAND JUNCTION FAIR      77  39  25 S10       30.22S
MONTROSE       FAIR      73  39  29 E5        30.29F
EAGLE          FAIR      63  38  39 CALM      30.39F
RIFLE          FAIR      69  44  40 CALM      30.27F
DELTA          FAIR      73  37  27 E3        30.26F
NUCLA          FAIR      72  36  26 CALM      30.33S
$$

COZ017>023-064>068-181700-
...SOUTHWEST COLORADO...

CITY           SKY/WX    TMP DP  RH WIND       PRES   REMARKS
DURANGO        FAIR      70  31  23 CALM      30.35S
CORTEZ         FAIR      72  39  30 CALM      30.30R
PAGOSA SPRINGS FAIR      69  32  24 CALM      30.43R
TELLURIDE      FAIR      66  31  26 CALM      30.53S
WOLF CREEK PAS FAIR      55  28  35 CALM      30.76S
$$

COZ009-010-012-014-032>034-037-058>063-181700-
...CENTRAL COLORADO...

CITY           SKY/WX    TMP DP  RH WIND       PRES   REMARKS
ASPEN          FAIR      67  38  34 NE3       30.41S
BUENA VISTA    FAIR      62  36  37 CALM      30.44S
COPPER MTN     FAIR      54  32  43 CALM      30.70R
BERTHOUD PASS  FAIR      45  41  87 NW14G25   30.71R
COTTONWOOD PAS FAIR      64  32  29 CALM      30.57R
GUNNISON       FAIR      56  36  47 CALM      30.47F
KREMMLING      FAIR      63  41  45 CALM      30.42F
LEADVILLE      FAIR      57  34  41 CALM      30.52S
MONARCH PASS   FAIR      52  30  43 W14       30.82R
SALIDA         FAIR      64  39  41 CALM      30.49F
SUNLIGHT       FAIR      55  32  41 CALM      30.64S
WILKERSON PASS FAIR      54  32  43 CALM      30.69R
$$

COZ069>075-181700-
...SAN LUIS VALLEY/SANGRE DE CRISTO MOUNTAINS...

CITY           SKY/WX    TMP DP  RH WIND       PRES   REMARKS
ALAMOSA        FAIR      61  41  47 CALM      30.43S
DEL NORTE      FAIR      65  37  35 W7        30.46S
LA VETA PASS   NOT AVBL
SAGUACHE       FAIR      64  37  36 S5        30.46R
$$

COZ035-036-038>040-181700-
...NORTHERN COLORADO FRONT RANGE...

CITY           SKY/WX    TMP DP  RH WIND       PRES   REMARKS
DENVER INTL AP FAIR      71  45  39 W5        30.24S
DMNS CITY PARK   N/A     71  46  40 W1G9      30.24S
AURORA         MOSUNNY   69  47  45 W3        30.26F
FRONT RANGE AP FAIR      72  46  40 CALM      30.26S
ERIE MUNI ARPT FAIR      72  44  36 CALM      30.27F
BOULDER MUN AP FAIR      72  45  37 E3        30.23F
CENTENNIAL     FAIR      70  46  42 CALM      30.27S
BROOMFIELD     MOSUNNY   70  46  43 SE5       30.27R
FORT COLLINS   FAIR      72  47  40 CALM      30.23R
LONGMONT       FAIR      74  45  34 CALM      30.24S
$$

COZ041-046-047-076>085-087-088-181700-
...PIKES PEAK/PALMER DIVIDE AND SOUTHERN FOOTHILLS...

CITY           SKY/WX    TMP DP  RH WIND       PRES   REMARKS
COLO. SPRINGS  FAIR      81  41  24 NW7       30.29S
A. F. ACADEMY  FAIR      77  39  25 NE5       30.30S
SCHRIEVER AFB  FAIR      78  44  29 N7        30.29R
CHEYENNE MTN   FAIR      76  41  28 NE6       30.29R
ELLICOTT       FAIR     N/A N/A N/A N9        30.27R
FALCON         FAIR      76  37  23 NW3       30.34S
FORT CARSON    FAIR      78  46  32 N6        30.25S
LIMON          FAIR      73  49  42 NW7       30.24S
MONUMENT HILL  FAIR      68  43  40 NW6       30.36S
CANON CITY     SUNNY     79  45  29 W16       30.23S
WALSENBURG     FAIR      82  34  17 CALM      30.29S
TRINIDAD       FAIR      78  41  26 NW6       30.27S
$$

COZ042>045-048>051-090-091-181700-
...NORTHEAST COLORADO...

CITY           SKY/WX    TMP DP  RH WIND       PRES   REMARKS
GREELEY ARPT   FAIR      73  53  49 S5        30.22S
AKRON          FAIR      72  50  45 NW10      30.20R
BURLINGTON     FAIR      75  56  51 NW12      30.14R
WRAY           NOT AVBL
YUMA           FAIR      72  34  25 NW8       30.15S
STERLING       FAIR      73  52  46 W5        30.15S
HOLYOKE        FAIR      79  55  44 NW9       30.13R
FORT MORGAN    FAIR      74  46  36 W8        30.21S
$$

COZ086-089-092>099-181700-
...SOUTHEAST COLORADO...

CITY           SKY/WX    TMP DP  RH WIND       PRES   REMARKS
PUEBLO         FAIR      80  43  26 S5        30.19S
LA JUNTA       FAIR      76  52  43 CALM      30.17S
LAMAR          FAIR      78  53  41 W12       30.11S
SPRINGFIELD      N/A     73  63  70 SW14      30.16S
$$



USA.gov is the U.S. government's official web portal to all federal, state and local government web resources and services.